Historique des stations

Station météo de Luçay-le-Libre

Altitude de la station : 138 m







Données météorologiques pour le 11/08/2022
Date
Heure
Températures Humidité Point de rosée Vitesse
du vent
Direction Rafales Windchill Pression Pluviométrie
Cumul
Date
Heure
Températures Humidité Point de rosée Vitesse
du vent
Direction Rafales Windchill Pression Pluviométrie
Cumul
11/08/2022 22:3125.9 °C36 %10.0 °C5 km/hNNO26 km/h26.1 1015 hPa-
11/08/2022 22:1925.8 °C36 %9.4 °C3 km/hNO11 km/h26.1 1015 hPa-
11/08/2022 22:1525.9 °C35 %9.4 °C10 km/hNNO26 km/h26.1 1015 hPa-
11/08/2022 22:0426.1 °C34 %8.9 °C5 km/hNNO10 km/h26.1 1015 hPa-
11/08/2022 22:0126.1 °C34 %8.9 °C6 km/hNNO26 km/h26.1 1015 hPa-
11/08/2022 21:4926.4 °C33 %8.9 °C5 km/hN6 km/h26.7 1015 hPa-
11/08/2022 21:4626.4 °C33 %8.9 °C5 km/hNNO26 km/h26.7 1015 hPa-
11/08/2022 21:3426.8 °C33 %9.4 °C2 km/hNNO6 km/h26.7 1015 hPa-
11/08/2022 21:3126.9 °C33 %9.4 °C2 km/hNNO26 km/h27.2 1015 hPa-
11/08/2022 21:1927.4 °C32 %9.4 °C2 km/hNNO6 km/h27.2 1015 hPa-
11/08/2022 21:1627.6 °C32 %9.4 °C2 km/hNNO26 km/h27.8 1015 hPa-
11/08/2022 21:0428.2 °C31 %9.4 °C2 km/hNO8 km/h28.3 1014 hPa-
11/08/2022 21:0128.4 °C31 %10.0 °C3 km/hNNO26 km/h28.3 1015 hPa-
11/08/2022 20:4929.2 °C29 %9.4 °C3 km/hNNO5 km/h29.4 1014 hPa-
11/08/2022 20:4629.5 °C29 %9.4 °C3 km/hNO26 km/h29.4 1014 hPa-
11/08/2022 20:3430.3 °C27 %9.4 °C3 km/hN8 km/h30.6 1014 hPa-
11/08/2022 20:3030.4 °C27 %9.4 °C5 km/hN26 km/h30.6 1014 hPa-
11/08/2022 20:1831.3 °C26 %9.4 °C3 km/hNO11 km/h31.1 1014 hPa-
11/08/2022 20:1531.6 °C26 %10.0 °C5 km/hNNO26 km/h31.7 1014 hPa-
11/08/2022 20:0331.8 °C25 %9.4 °C3 km/hNNO11 km/h31.7 1014 hPa-
11/08/2022 20:0032.1 °C25 %10.0 °C5 km/hNNO26 km/h32.2 1014 hPa-
11/08/2022 19:4832.6 °C23 %8.9 °C6 km/hN10 km/h32.8 1014 hPa-
11/08/2022 19:4432.5 °C24 %9.4 °C-N26 km/h32.8 1014 hPa-
11/08/2022 19:3332.4 °C23 %8.9 °C6 km/hN11 km/h32.2 1014 hPa-
11/08/2022 19:3032.4 °C23 %8.9 °C10 km/hNO26 km/h32.2 1014 hPa-
11/08/2022 19:1932.6 °C23 %8.9 °C10 km/hN14 km/h32.8 1014 hPa-
11/08/2022 19:1532.7 °C24 %9.4 °C6 km/hNNO26 km/h32.8 1014 hPa-
11/08/2022 19:0333.1 °C24 %10.0 °C5 km/hN10 km/h33.3 1014 hPa-
11/08/2022 19:0033.0 °C24 %10.0 °C-N26 km/h32.8 1014 hPa-
11/08/2022 18:4933.1 °C24 %10.0 °C6 km/hN11 km/h33.3 1014 hPa-
11/08/2022 18:4533.2 °C24 %10.0 °C5 km/hNNE26 km/h33.3 1014 hPa-
11/08/2022 18:3333.5 °C24 %10.6 °C3 km/hN11 km/h33.3 1014 hPa-
11/08/2022 18:3033.3 °C24 %10.0 °C-E26 km/h33.3 1014 hPa-
11/08/2022 18:1933.6 °C24 %10.6 °C3 km/hNNO10 km/h33.3 1014 hPa-
11/08/2022 18:1533.6 °C24 %10.6 °C5 km/hNNO26 km/h33.9 1014 hPa-
11/08/2022 18:0433.6 °C24 %10.6 °C-NNO11 km/h33.9 1014 hPa-
11/08/2022 18:0033.7 °C25 %11.1 °C5 km/hNNO26 km/h33.9 1014 hPa-
11/08/2022 17:5033.4 °C24 %10.0 °C8 km/hNNO14 km/h33.3 1014 hPa-
11/08/2022 17:4533.5 °C24 %10.6 °C2 km/hESE26 km/h33.3 1014 hPa-
11/08/2022 17:3433.4 °C25 %11.1 °C5 km/hNNE13 km/h33.3 1014 hPa-
11/08/2022 17:3033.4 °C25 %11.1 °C3 km/hE26 km/h33.3 1014 hPa-
11/08/2022 17:2033.3 °C25 %10.6 °C3 km/hE13 km/h33.3 1015 hPa-
11/08/2022 17:1533.3 °C25 %10.6 °C10 km/hNNO26 km/h33.3 1015 hPa-
11/08/2022 17:0533.6 °C26 %11.7 °C10 km/hNNE13 km/h33.3 1015 hPa-
11/08/2022 17:0033.4 °C25 %11.1 °C-O26 km/h33.3 1015 hPa-
11/08/2022 16:5033.4 °C26 %11.7 °C3 km/hNO16 km/h33.3 1015 hPa-
11/08/2022 16:4533.4 °C25 %11.1 °C-NE26 km/h33.3 1015 hPa-
11/08/2022 16:3533.6 °C26 %11.7 °C3 km/hNO19 km/h33.9 1015 hPa-
11/08/2022 16:3133.7 °C26 %11.7 °C11 km/hNNO26 km/h33.9 1015 hPa-
11/08/2022 16:2133.6 °C26 %11.7 °C-ENE11 km/h33.9 1015 hPa-
11/08/2022 16:1533.5 °C26 %11.7 °C3 km/hESE26 km/h33.3 1015 hPa-
11/08/2022 16:0633.7 °C26 %11.7 °C10 km/hE14 km/h33.9 1015 hPa-
11/08/2022 16:0033.8 °C26 %11.7 °C-NNE26 km/h33.9 1015 hPa-
11/08/2022 15:5133.9 °C26 %11.7 °C-NO13 km/h33.9 1015 hPa-
11/08/2022 15:4634.1 °C25 %11.7 °C5 km/hN26 km/h33.9 1015 hPa-
11/08/2022 15:3633.9 °C25 %11.1 °C3 km/hNNE10 km/h33.9 1015 hPa-
11/08/2022 15:3133.8 °C26 %11.7 °C-ENE26 km/h33.9 1015 hPa-
11/08/2022 15:2133.2 °C25 %10.6 °C5 km/hESE18 km/h33.3 1015 hPa-
11/08/2022 15:1633.2 °C26 %11.1 °C5 km/hENE26 km/h33.3 1015 hPa-
11/08/2022 15:0633.3 °C26 %11.1 °C10 km/hNNO14 km/h33.3 1015 hPa-
11/08/2022 15:0133.5 °C26 %11.7 °C-NNO26 km/h33.3 1015 hPa-
11/08/2022 14:4833.4 °C26 %11.7 °C3 km/hN14 km/h33.3 1015 hPa-
11/08/2022 14:4533.3 °C26 %11.1 °C2 km/hNNE26 km/h33.3 1016 hPa-
11/08/2022 14:3533.3 °C26 %11.1 °C-NE13 km/h33.3 1015 hPa-
11/08/2022 14:3033.2 °C26 %11.1 °C5 km/hNNO26 km/h33.3 1015 hPa-
11/08/2022 14:2033.1 °C27 %11.7 °C3 km/hSE16 km/h33.3 1015 hPa-
11/08/2022 14:1533.0 °C27 %11.7 °C3 km/hNNE26 km/h32.8 1016 hPa-
11/08/2022 14:0632.7 °C26 %11.1 °C3 km/hSSE16 km/h32.8 1016 hPa-
11/08/2022 14:0032.5 °C27 %11.1 °C8 km/hSE26 km/h32.8 1016 hPa-
11/08/2022 13:5132.4 °C27 %11.1 °C11 km/hNNE24 km/h32.2 1016 hPa-
11/08/2022 13:4532.8 °C27 %11.7 °C8 km/hE26 km/h32.8 1016 hPa-
11/08/2022 13:3632.4 °C28 %11.7 °C6 km/hN26 km/h32.2 1016 hPa-
11/08/2022 13:3032.1 °C28 %11.7 °C3 km/hNE26 km/h32.2 1016 hPa-
11/08/2022 13:2131.9 °C29 %11.7 °C8 km/hE14 km/h32.2 1016 hPa-
11/08/2022 13:1531.9 °C30 %12.2 °C13 km/hNE23 km/h32.2 1016 hPa-
11/08/2022 13:0631.8 °C31 %12.8 °C3 km/hN14 km/h31.7 1016 hPa-
11/08/2022 13:0031.3 °C31 %12.2 °C2 km/hONO23 km/h31.1 1016 hPa-
11/08/2022 12:5231.6 °C31 %12.2 °C5 km/hENE16 km/h31.7 1016 hPa-
11/08/2022 12:4531.4 °C34 %13.9 °C3 km/hNNO16 km/h31.7 1016 hPa-
11/08/2022 12:3631.1 °C34 %13.3 °C5 km/hENE16 km/h31.1 1016 hPa-
11/08/2022 12:3030.8 °C35 %13.9 °C5 km/hENE16 km/h30.6 1016 hPa-
11/08/2022 12:2230.7 °C35 %13.3 °C5 km/hE10 km/h30.6 1016 hPa-
11/08/2022 12:1530.2 °C35 %13.3 °C3 km/hENE13 km/h30.0 1016 hPa-
11/08/2022 12:0730.1 °C35 %12.8 °C6 km/hN13 km/h30.0 1016 hPa-
11/08/2022 12:0129.9 °C36 %13.3 °C3 km/hNNE13 km/h30.0 1016 hPa-
11/08/2022 11:5129.6 °C36 %12.8 °C10 km/hESE11 km/h29.4 1016 hPa-
11/08/2022 11:4629.3 °C37 %13.3 °C6 km/hE13 km/h29.4 1017 hPa-
11/08/2022 11:3728.8 °C37 %12.8 °C8 km/hSE10 km/h28.9 1017 hPa-
11/08/2022 11:3128.4 °C39 %13.3 °C5 km/hESE13 km/h28.3 1017 hPa-
11/08/2022 11:2228.2 °C39 %12.8 °C2 km/hNE13 km/h28.3 1017 hPa-
11/08/2022 11:1628.2 °C39 %12.8 °C-NNE13 km/h28.3 1017 hPa-
11/08/2022 11:0527.7 °C39 %12.2 °C-NE11 km/h27.8 1017 hPa-
11/08/2022 11:0027.2 °C40 %12.2 °C6 km/hNE11 km/h27.2 1017 hPa-
11/08/2022 10:5127.2 °C39 %12.2 °C3 km/hNE11 km/h27.2 1017 hPa-
11/08/2022 10:4526.9 °C40 %12.2 °C-E10 km/h26.7 1017 hPa-
11/08/2022 10:3526.9 °C39 %11.7 °C2 km/hE6 km/h26.7 1017 hPa-
11/08/2022 10:3026.6 °C40 %11.7 °C3 km/hNE10 km/h26.7 1017 hPa-
11/08/2022 10:2026.1 °C41 %11.7 °C2 km/hN10 km/h26.1 1017 hPa-
11/08/2022 10:1526.1 °C42 %12.2 °C2 km/hSSE8 km/h26.1 1017 hPa-
11/08/2022 10:0525.2 °C43 %11.7 °C-ESE8 km/h25.0 1017 hPa-
11/08/2022 10:0025.1 °C43 %11.7 °C3 km/hNE8 km/h25.0 1017 hPa-
11/08/2022 09:5125.0 °C43 %11.7 °C-SE6 km/h25.0 1017 hPa-
11/08/2022 09:4524.8 °C42 %11.1 °C-NNE8 km/h25.0 1017 hPa-
11/08/2022 09:3624.7 °C43 %11.1 °C3 km/hNE3 km/h25.0 1017 hPa-
11/08/2022 09:3024.1 °C44 %11.1 °C2 km/hNNE8 km/h23.9 1017 hPa-
11/08/2022 09:2123.8 °C44 %10.6 °C-NNE3 km/h23.9 1017 hPa-
11/08/2022 09:1523.2 °C46 %11.1 °C-NNE8 km/h23.3 1017 hPa-
11/08/2022 09:0622.6 °C48 %11.1 °C-N3 km/h22.8 1017 hPa-
11/08/2022 09:0022.4 °C48 %10.6 °C-NNE8 km/h22.2 1017 hPa-
11/08/2022 08:5121.4 °C52 %11.1 °C-NNE2 km/h21.7 1017 hPa-
11/08/2022 08:4420.3 °C55 %11.1 °C-N8 km/h20.6 1017 hPa-
11/08/2022 08:3619.3 °C56 %10.0 °C-NNE3 km/h19.4 1017 hPa-
11/08/2022 08:3118.8 °C58 %10.0 °C-NNO8 km/h18.9 1017 hPa-
11/08/2022 08:2018.1 °C61 %10.6 °C---18.3 1017 hPa-
11/08/2022 08:1517.8 °C61 %10.0 °C-NO8 km/h17.8 1017 hPa-
11/08/2022 08:0517.3 °C62 %10.0 °C-NO2 km/h17.2 1017 hPa-
11/08/2022 08:0117.2 °C61 %9.4 °C-NO8 km/h17.2 1017 hPa-
11/08/2022 07:5017.1 °C63 %10.0 °C---17.2 1017 hPa-
11/08/2022 07:4616.8 °C62 %9.4 °C-NO8 km/h16.7 1017 hPa-
11/08/2022 07:3516.0 °C65 %9.4 °C---16.1 1017 hPa-
11/08/2022 07:3115.8 °C65 %9.4 °C-NO8 km/h16.1 1017 hPa-
11/08/2022 07:1914.3 °C69 %8.9 °C---14.4 1017 hPa-
11/08/2022 07:1614.0 °C70 %8.3 °C-NO8 km/h13.9 1017 hPa-
11/08/2022 07:0414.2 °C69 %8.3 °C---14.4 1017 hPa-
11/08/2022 07:0114.2 °C69 %8.3 °C-NO8 km/h14.4 1017 hPa-
11/08/2022 06:5013.9 °C70 %8.3 °C---13.9 1017 hPa-
11/08/2022 06:4614.0 °C69 %8.3 °C-NO8 km/h13.9 1017 hPa-
11/08/2022 06:3514.3 °C68 %8.3 °C---14.4 1017 hPa-
11/08/2022 06:3114.3 °C68 %8.3 °C-NO8 km/h14.4 1017 hPa-
11/08/2022 06:2014.3 °C68 %8.3 °C---14.4 1016 hPa-
11/08/2022 06:1614.3 °C68 %8.3 °C-NO8 km/h14.4 1016 hPa-
11/08/2022 06:0414.4 °C67 %8.3 °C---14.4 1016 hPa-
11/08/2022 05:5614.6 °C66 %8.3 °C-NO8 km/h14.4 1016 hPa-
11/08/2022 05:4914.9 °C64 %8.3 °C---15.0 1016 hPa-
11/08/2022 05:4515.1 °C64 %8.3 °C-NO8 km/h15.0 1016 hPa-
11/08/2022 05:3415.5 °C63 %8.3 °C---15.6 1016 hPa-
11/08/2022 05:3015.6 °C63 %8.3 °C-NO8 km/h15.6 1016 hPa-
11/08/2022 05:0017.3 °C56 %8.3 °C-NO8 km/h17.2 1016 hPa-
11/08/2022 04:4916.0 °C60 %8.3 °C---16.1 1016 hPa-
11/08/2022 04:4515.8 °C60 %7.8 °C-NO8 km/h16.1 1016 hPa-
11/08/2022 04:3416.7 °C57 %7.8 °C---16.7 1016 hPa-
11/08/2022 04:3017.1 °C56 %8.3 °C-ONO8 km/h17.2 1016 hPa-
11/08/2022 04:1917.7 °C55 %8.3 °C---17.8 1016 hPa-
11/08/2022 04:1517.7 °C55 %8.3 °C-ONO8 km/h17.8 1016 hPa-
11/08/2022 04:0417.9 °C54 %8.3 °C---17.8 1016 hPa-
11/08/2022 04:0018.1 °C53 %8.3 °C-ONO8 km/h18.3 1016 hPa-
11/08/2022 03:4918.6 °C52 %8.3 °C---18.9 1016 hPa-
11/08/2022 03:4618.8 °C52 %8.9 °C-ONO8 km/h18.9 1016 hPa-
11/08/2022 03:3419.4 °C50 %8.9 °C-ONO2 km/h19.4 1016 hPa-
11/08/2022 03:3119.4 °C50 %8.9 °C-ONO8 km/h19.4 1016 hPa-
11/08/2022 03:1919.6 °C50 %8.9 °C-ONO2 km/h19.4 1016 hPa-
11/08/2022 03:1619.6 °C50 %8.9 °C-ONO8 km/h19.4 1016 hPa-
11/08/2022 03:0919.6 °C50 %8.9 °C---19.4 1016 hPa-
11/08/2022 03:0119.6 °C50 %8.9 °C-NO8 km/h19.4 1016 hPa-
11/08/2022 02:5519.7 °C50 %8.9 °C-NO3 km/h19.4 1016 hPa-
11/08/2022 02:4619.8 °C50 %8.9 °C-O8 km/h20.0 1016 hPa-
11/08/2022 02:4119.8 °C49 %8.9 °C---20.0 1016 hPa-
11/08/2022 02:3020.1 °C49 %8.9 °C-O8 km/h20.0 1016 hPa-
11/08/2022 02:2520.2 °C48 %8.9 °C-O3 km/h20.0 1016 hPa-
11/08/2022 02:1520.4 °C48 %8.9 °C2 km/hONO8 km/h20.6 1017 hPa-
11/08/2022 02:0820.7 °C48 %9.4 °C-OSO2 km/h20.6 1017 hPa-
11/08/2022 02:0021.1 °C47 %9.4 °C-ONO8 km/h21.1 1017 hPa-
11/08/2022 01:5321.3 °C46 %9.4 °C-ESE2 km/h21.1 1017 hPa-
11/08/2022 01:4521.6 °C46 %9.4 °C-O8 km/h21.7 1017 hPa-
11/08/2022 01:3421.9 °C45 %9.4 °C-NNO5 km/h22.2 1017 hPa-
11/08/2022 01:3022.1 °C45 %9.4 °C-OSO8 km/h22.2 1017 hPa-
11/08/2022 01:1922.4 °C44 %9.4 °C3 km/hONO8 km/h22.2 1017 hPa-
11/08/2022 01:1522.4 °C44 %9.4 °C2 km/hNO8 km/h22.2 1017 hPa-
11/08/2022 01:0422.7 °C44 %10.0 °C6 km/hNO8 km/h22.8 1017 hPa-
11/08/2022 01:0022.7 °C43 %9.4 °C3 km/hNNO8 km/h22.8 1017 hPa-
11/08/2022 00:4922.6 °C44 %9.4 °C-ONO6 km/h22.8 1017 hPa-
11/08/2022 00:4522.6 °C44 %9.4 °C5 km/hNNO5 km/h22.8 1017 hPa-
11/08/2022 00:3422.7 °C44 %10.0 °C-NNO3 km/h22.8 1017 hPa-
11/08/2022 00:3022.8 °C43 %9.4 °C2 km/hNNO5 km/h22.8 1017 hPa-
11/08/2022 00:1922.8 °C44 %10.0 °C3 km/hNO5 km/h22.8 1017 hPa-
11/08/2022 00:1522.8 °C44 %10.0 °C-ONO5 km/h22.8 1017 hPa-
11/08/2022 00:0523.0 °C43 %9.4 °C2 km/hO5 km/h22.8 1017 hPa-
11/08/2022 00:0123.2 °C43 %10.0 °C2 km/hNNO2 km/h23.3 1017 hPa-


Minima :

Température : 13.9 °C
Humidité : 23 %
Point de rosée : 7.8 °C
Vent moyen : 2 km/h
Windchill : 13.9
Pression atm. : 1014 hPa
Maxima :

Température : 34.1 °C
Humidité : 70 %
Point de rosée : 13.9 °C
Vent moyen : 13 km/h
Windchill : 33.9
Pression atm. : 1017 hPa
Rafales max : 26 km/h
Cumul de pluie sur 24H : 0 mm

Luçay-le-Libre est une commune du département Indre (36).
La station météorologique du réseau de l'association la plus proche de Luçay-le-Libre est celle de Graçay



Icône Facebook Association Météo Centre Icône Twitter Association Météo Centre Icône Chaîne Youtube Association Météo Centre Icône contact Association Météo Centre Icône Insta Association Météo Centre